WX4LTG Weather Reports


time (UTC)temp
C
wind
direction
speed
KPH
gust
KPH
rain 1hr
cm
rain 24hr
cm
rain mn
cm
humidity
%
barometer
mb
20260905025817 36 227 4.8 8.0 0.00 0.00 0.00 27 1009.8
20260905025312 36 240 6.4 14.5 0.00 0.00 0.00 27 1009.8
20260905024809 36 284 8.0 16.1 0.00 0.00 0.00 26 1009.9
20260905024303 36 236 6.4 9.7 0.00 0.00 0.00 27 1009.4
20260905023758 36 242 6.4 8.0 0.00 0.00 0.00 27 1009.4
20260905023254 36 83 0.0 3.2 0.00 0.00 0.00 33 1009.6
20260905022753 35 92 0.0 0.0 0.00 0.00 0.00 34 1009.5
20260905022249 35 123 0.0 1.6 0.00 0.00 0.00 33 1009.6
20260905021749 35 94 0.0 0.0 0.00 0.00 0.00 34 1009.4
20260905021244 36 101 0.0 0.0 0.00 0.00 0.00 34 1009.4
20260905020744 36 96 0.0 3.2 0.00 0.00 0.00 34 1009.3
20260905020239 36 85 0.0 0.0 0.00 0.00 0.00 33 1009.3
20260905015738 36 94 0.0 0.0 0.00 0.00 0.00 34 1009.2
20260905015232 36 59 3.2 3.2 0.00 0.00 0.00 34 1009.3
20260905014731 36 47 3.2 4.8 0.00 0.00 0.00 34 1009.1
20260905014227 36 80 6.4 8.0 0.00 0.00 0.00 33 1009.0
20260905013722 36 68 3.2 8.0 0.00 0.00 0.00 33 1008.9
20260905013218 36 70 3.2 8.0 0.00 0.00 0.00 33 1008.9
20260905012714 36 73 0.0 1.6 0.00 0.00 0.00 34 1008.9
20260905012209 36 53 1.6 4.8 0.00 0.00 0.00 33 1009.1
20260905011706 37 91 0.0 0.0 0.00 0.00 0.00 30 1009.0
20260905011202 37 82 0.0 1.6 0.00 0.00 0.00 31 1009.0
20260905010701 37 42 1.6 3.2 0.00 0.00 0.00 30 1008.9
20260905010157 37 63 1.6 1.6 0.00 0.00 0.00 30 1009.1
20260905005654 37 71 0.0 1.6 0.00 0.00 0.00 30 1009.1
20260905005149 37 33 1.6 3.2 0.00 0.00 0.00 30 1009.0
20260905004643 36 20 1.6 3.2 0.00 0.00 0.00 31 1009.4
20260905004138 37 7 0.0 8.0 0.00 0.00 0.00 31 1009.1
20260905003634 37 285 4.8 8.0 0.00 0.00 0.00 30 1009.5
20260905003129 37 51 3.2 3.2 0.00 0.00 0.00 30 1009.2
20260905002625 37 60 0.0 3.2 0.00 0.00 0.00 31 1009.0
20260905002120 37 47 1.6 3.2 0.00 0.00 0.00 32 1009.2
20260905001615 37 4 3.2 4.8 0.00 0.00 0.00 32 1009.2
20260905001114 37 45 1.6 8.0 0.00 0.00 0.00 33 1009.2
20260905000610 37 284 9.7 11.3 0.00 0.00 0.00 32 1009.3
20260905000106 37 147 1.6 1.6 0.00 0.00 0.00 31 1009.0
20260904235606 38 150 1.6 3.2 0.00 0.00 0.00 30 1009.2
20260904235105 38 128 3.2 4.8 0.00 0.00 0.00 30 1009.1
20260904234600 38 69 0.0 3.2 0.00 0.00 0.00 30 1009.2
20260904234056 38 173 8.0 12.9 0.00 0.00 0.00 30 1009.1
20260904233556 37 137 4.8 11.3 0.00 0.00 0.00 31 1009.3
20260904233052 37 100 3.2 4.8 0.00 0.00 0.00 32 1009.2
20260904232549 37 40 8.0 11.3 0.00 0.00 0.00 32 1009.2
20260904232045 37 74 1.6 11.3 0.00 0.00 0.00 32 1009.5
20260904231540 37 107 8.0 11.3 0.00 0.00 0.00 32 1009.4
20260904231035 37 45 3.2 8.0 0.00 0.00 0.00 32 1009.4
20260904230534 38 113 6.4 9.7 0.00 0.00 0.00 32 1009.5
20260904230030 38 90 4.8 11.3 0.00 0.00 0.00 31 1009.6
20260904225527 38 120 6.4 9.7 0.00 0.00 0.00 32 1009.6
20260904225027 37 174 6.4 11.3 0.00 0.00 0.00 31 1009.7
20260904224523 38 114 3.2 8.0 0.00 0.00 0.00 31 1009.6
20260904224022 37 203 4.8 4.8 0.00 0.00 0.00 32 1009.7
20260904223521 38 128 3.2 12.9 0.00 0.00 0.00 32 1010.1
20260904223018 37 85 0.0 3.2 0.00 0.00 0.00 32 1010.0
20260904222513 37 39 3.2 4.8 0.00 0.00 0.00 32 1010.0
20260904222008 38 147 0.0 8.0 0.00 0.00 0.00 32 1010.1
20260904221503 37 107 4.8 4.8 0.00 0.00 0.00 32 1010.1
20260904220957 36 72 1.6 4.8 0.00 0.00 0.00 34 1010.0
20260904220457 37 113 1.6 3.2 0.00 0.00 0.00 33 1010.3
20260904215952 36 41 0.0 1.6 0.00 0.00 0.00 33 1010.3
20260904215447 36 9 1.6 9.7 0.00 0.00 0.00 34 1010.4
20260904214943 36 238 8.0 8.0 0.00 0.00 0.00 34 1010.5
20260904214438 37 134 3.2 8.0 0.00 0.00 0.00 33 1010.5
20260904213933 36 131 1.6 8.0 0.00 0.00 0.00 33 1010.6
20260904213432 36 95 3.2 8.0 0.00 0.00 0.00 33 1010.5
20260904212928 37 121 4.8 9.7 0.00 0.00 0.00 32 1010.6
20260904212428 37 151 6.4 8.0 0.00 0.00 0.00 31 1010.8
20260904211923 37 117 8.0 9.7 0.00 0.00 0.00 34 1010.7
20260904211418 37 83 1.6 9.7 0.00 0.00 0.00 32 1010.8
20260904210914 37 106 1.6 8.0 0.00 0.00 0.00 32 1010.8
20260904210412 37 121 3.2 9.7 0.00 0.00 0.00 32 1011.0
20260904205909 38 90 0.0 3.2 0.00 0.00 0.00 32 1011.1
20260904205404 38 128 0.0 3.2 0.00 0.00 0.00 30 1011.2
20260904204901 38 127 3.2 3.2 0.00 0.00 0.00 31 1011.0
20260904204357 37 176 9.7 20.9 0.00 0.00 0.00 32 1011.1
20260904203853 37 122 4.8 4.8 0.00 0.00 0.00 33 1011.1
20260904203349 37 247 3.2 8.0 0.00 0.00 0.00 33 1011.0
20260904202844 37 228 6.4 27.4 0.00 0.00 0.00 34 1011.3
20260904202340 37 76 0.0 3.2 0.00 0.00 0.00 35 1011.5
20260904201836 36 186 8.0 9.7 0.00 0.00 0.00 36 1011.5
20260904201336 37 145 4.8 11.3 0.00 0.00 0.00 36 1011.8
20260904200831 36 183 6.4 12.9 0.00 0.00 0.00 36 1011.7
20260904200329 36 110 11.3 16.1 0.00 0.00 0.00 37 1011.7
20260904195824 36 130 3.2 11.3 0.00 0.00 0.00 36 1011.8
20260904195323 37 133 3.2 11.3 0.00 0.00 0.00 35 1012.0
20260904194818 37 40 8.0 12.9 0.00 0.00 0.00 35 1012.0
20260904194317 36 138 11.3 20.9 0.00 0.00 0.00 35 1012.0
20260904193812 36 84 4.8 4.8 0.00 0.00 0.00 37 1012.2
20260904193308 36 79 11.3 14.5 0.00 0.00 0.00 38 1011.8
20260904192803 36 64 4.8 4.8 0.00 0.00 0.00 38 1012.2
20260904192258 36 118 4.8 11.3 0.00 0.00 0.00 39 1012.3
20260904191755 36 104 8.0 11.3 0.00 0.00 0.00 39 1012.4
20260904191251 35 91 4.8 8.0 0.00 0.00 0.00 39 1012.4
20260904190747 35 244 1.6 9.7 0.00 0.00 0.00 39 1012.6
20260904190243 35 171 3.2 4.8 0.00 0.00 0.00 39 1012.5
20260904185739 34 89 1.6 9.7 0.00 0.00 0.00 43 1012.7
20260904185234 35 107 0.0 8.0 0.00 0.00 0.00 40 1012.7
20260904184732 35 104 0.0 4.8 0.00 0.00 0.00 40 1012.9
20260904184229 35 158 8.0 12.9 0.00 0.00 0.00 40 1013.0
20260904183724 35 147 11.3 16.1 0.00 0.00 0.00 40 1013.2
20260904183224 35 93 1.6 9.7 0.00 0.00 0.00 41 1013.4
20260904182720 35 147 4.8 11.3 0.00 0.00 0.00 41 1013.4
20260904182215 35 119 6.4 9.7 0.00 0.00 0.00 41 1013.3
20260904181711 35 205 6.4 9.7 0.00 0.00 0.00 42 1013.5
20260904181210 35 133 11.3 14.5 0.00 0.00 0.00 43 1013.3
20260904180706 35 96 4.8 9.7 0.00 0.00 0.00 43 1013.4
20260904180201 35 128 1.6 9.7 0.00 0.00 0.00 44 1013.6
20260904175700 34 98 0.0 1.6 0.00 0.00 0.00 43 1013.5
20260904175159 34 149 6.4 12.9 0.00 0.00 0.00 44 1013.6
20260904174658 34 124 6.4 8.0 0.00 0.00 0.00 45 1013.8
20260904174155 34 185 8.0 16.1 0.00 0.00 0.00 45 1013.9
20260904173650 34 131 4.8 16.1 0.00 0.00 0.00 45 1013.6
20260904173145 33 103 8.0 11.3 0.00 0.00 0.00 46 1013.5
20260904172642 34 159 6.4 14.5 0.00 0.00 0.00 45 1013.5
20260904172141 34 129 9.7 24.1 0.00 0.00 0.00 46 1013.6
20260904171636 33 163 6.4 14.5 0.00 0.00 0.00 47 1013.8
20260904171131 34 169 9.7 14.5 0.00 0.00 0.00 46 1013.6
20260904170628 33 178 9.7 17.7 0.00 0.00 0.00 47 1013.6
20260904170123 33 90 12.9 20.9 0.00 0.00 0.00 48 1013.6
20260904165622 33 71 12.9 24.1 0.00 0.00 0.00 49 1013.5
20260904165122 33 120 9.7 22.5 0.00 0.00 0.00 48 1013.8
20260904164621 33 200 8.0 14.5 0.00 0.00 0.00 48 1013.5
20260904164117 32 158 6.4 11.3 0.00 0.00 0.00 49 1013.5
20260904163612 33 128 14.5 22.5 0.00 0.00 0.00 50 1013.3
20260904163108 33 156 6.4 14.5 0.00 0.00 0.00 51 1013.1
20260904162608 32 87 8.0 17.7 0.00 0.00 0.00 51 1013.2
20260904162103 32 133 8.0 14.5 0.00 0.00 0.00 52 1013.4
20260904161558 32 125 8.0 17.7 0.00 0.00 0.00 53 1012.9
20260904161053 32 176 8.0 14.5 0.00 0.00 0.00 52 1013.1
20260904160548 32 133 12.9 20.9 0.00 0.00 0.00 52 1013.1
20260904160044 32 150 14.5 17.7 0.00 0.00 0.00 52 1013.3
20260904155543 32 106 3.2 8.0 0.00 0.00 0.00 53 1013.3
20260904155038 31 143 14.5 17.7 0.00 0.00 0.00 54 1013.2
20260904154532 31 182 8.0 11.3 0.00 0.00 0.00 54 1013.2
20260904154027 31 149 3.2 11.3 0.00 0.00 0.00 54 1013.2
20260904153526 32 86 11.3 17.7 0.00 0.00 0.00 54 1013.3
20260904153023 31 156 1.6 3.2 0.00 0.00 0.00 55 1013.2
20260904152518 31 149 6.4 16.1 0.00 0.00 0.00 55 1013.1
20260904152014 31 132 9.7 14.5 0.00 0.00 0.00 56 1013.0
20260904151509 31 121 4.8 8.0 0.00 0.00 0.00 56 1013.2
20260904151009 31 132 1.6 12.9 0.00 0.00 0.00 55 1013.2
20260904150503 31 175 11.3 14.5 0.00 0.00 0.00 56 1013.1
20260904150003 31 124 3.2 17.7 0.00 0.00 0.00 56 1013.1
20260904145458 31 137 11.3 14.5 0.00 0.00 0.00 57 1013.1
20260904144953 31 146 3.2 12.9 0.00 0.00 0.00 57 1013.3
20260904144449 31 96 1.6 16.1 0.00 0.00 0.00 58 1013.2
20260904143944 30 131 8.0 9.7 0.00 0.00 0.00 58 1013.2
20260904143440 30 85 1.6 4.8 0.00 0.00 0.00 58 1012.9
20260904142937 30 85 6.4 11.3 0.00 0.00 0.00 59 1013.1
20260904142433 30 67 4.8 9.7 0.00 0.00 0.00 58 1013.0
20260904141933 30 124 1.6 8.0 0.00 0.00 0.00 59 1013.0
20260904141428 30 107 3.2 4.8 0.00 0.00 0.00 59 1012.7
20260904140924 30 117 1.6 8.0 0.00 0.00 0.00 59 1012.6
20260904140424 30 122 3.2 3.2 0.00 0.00 0.00 59 1012.6
20260904135923 30 112 4.8 4.8 0.00 0.00 0.00 60 1012.9
20260904135423 30 125 3.2 4.8 0.00 0.00 0.00 60 1012.7
20260904134920 30 104 1.6 3.2 0.00 0.00 0.00 60 1012.5
20260904134419 29 89 1.6 3.2 0.00 0.00 0.00 60 1012.3
20260904133914 29 114 0.0 1.6 0.00 0.00 0.00 61 1012.4
20260904133414 29 103 0.0 1.6 0.00 0.00 0.00 61 1012.5
20260904132909 28 105 1.6 4.8 0.00 0.00 0.00 61 1012.1
20260904132405 28 101 1.6 4.8 0.00 0.00 0.00 62 1011.9
20260904131904 28 124 3.2 4.8 0.00 0.00 0.00 63 1012.0
20260904131400 28 79 0.0 0.0 0.00 0.00 0.00 64 1011.9
20260904130855 28 80 1.6 3.2 0.00 0.00 0.00 62 1011.9
20260904130354 28 106 0.0 1.6 0.00 0.00 0.00 62 1011.7
20260904125849 28 97 0.0 1.6 0.00 0.00 0.00 61 1011.7
20260904125346 28 139 4.8 4.8 0.00 0.00 0.00 61 1011.7
20260904124844 28 114 1.6 9.7 0.00 0.00 0.00 61 1011.4
20260904124341 28 94 1.6 8.0 0.00 0.00 0.00 61 1011.5
20260904123836 28 133 3.2 4.8 0.00 0.00 0.00 61 1011.5
20260904123331 28 93 1.6 4.8 0.00 0.00 0.00 61 1011.3
20260904122827 28 136 1.6 3.2 0.00 0.00 0.00 61 1011.2
20260904122326 28 138 6.4 9.7 0.00 0.00 0.00 61 1011.1
20260904121821 28 159 1.6 3.2 0.00 0.00 0.00 61 1010.8
20260904121318 29 132 4.8 12.9 0.00 0.00 0.00 60 1011.2
20260904120814 29 173 3.2 9.7 0.00 0.00 0.00 60 1011.1
20260904120309 29 111 4.8 9.7 0.00 0.00 0.00 60 1011.2
20260904115804 29 127 3.2 9.7 0.00 0.00 0.00 60 1011.0
20260904115300 29 147 4.8 11.3 0.00 0.00 0.00 60 1011.2
20260904114754 29 130 8.0 14.5 0.00 0.00 0.00 59 1010.6
20260904114254 29 121 3.2 8.0 0.00 0.00 0.00 60 1010.8
20260904113749 29 177 4.8 9.7 0.00 0.00 0.00 60 1011.0
20260904113248 29 115 4.8 9.7 0.00 0.00 0.00 59 1011.2
20260904112743 29 128 3.2 4.8 0.00 0.00 0.00 60 1011.1
20260904112239 29 137 4.8 8.0 0.00 0.00 0.00 60 1011.2
20260904111735 29 105 3.2 8.0 0.00 0.00 0.00 60 1010.8
20260904111230 29 121 3.2 8.0 0.00 0.00 0.00 59 1011.1
20260904110726 29 122 1.6 9.7 0.00 0.00 0.00 59 1011.0
20260904110225 29 99 4.8 12.9 0.00 0.00 0.00 59 1011.0
20260904105720 29 141 9.7 12.9 0.00 0.00 0.00 59 1010.8
20260904105214 29 122 3.2 9.7 0.00 0.00 0.00 59 1011.0
20260904104710 28 107 4.8 9.7 0.00 0.00 0.00 59 1011.0
20260904104205 28 124 3.2 4.8 0.00 0.00 0.00 60 1010.8
20260904103702 28 100 1.6 3.2 0.00 0.00 0.00 60 1010.7
20260904103156 28 69 3.2 4.8 0.00 0.00 0.00 60 1010.7
20260904102653 28 76 1.6 3.2 0.00 0.00 0.00 60 1010.7
20260904102147 28 78 0.0 1.6 0.00 0.00 0.00 59 1010.6
20260904101645 28 86 0.0 1.6 0.00 0.00 0.00 60 1010.5
20260904101140 28 90 0.0 0.0 0.00 0.00 0.00 60 1010.6
20260904100636 28 82 0.0 0.0 0.00 0.00 0.00 59 1010.6
20260904100131 28 78 0.0 0.0 0.00 0.00 0.00 59 1010.4
20260904095625 28 68 0.0 0.0 0.00 0.00 0.00 59 1010.6
20260904095125 28 78 0.0 0.0 0.00 0.00 0.00 59 1010.6
20260904094620 29 69 0.0 0.0 0.00 0.00 0.00 58 1010.5
20260904094110 29 86 0.0 0.0 0.00 0.00 0.00 57 1010.5
20260904093607 29 97 0.0 3.2 0.00 0.00 0.00 57 1010.5
20260904093106 30 86 0.0 3.2 0.00 0.00 0.00 57 1010.7
20260904092602 30 118 0.0 3.2 0.00 0.00 0.00 56 1010.4
20260904092059 30 106 1.6 3.2 0.00 0.00 0.00 56 1010.5
20260904091554 30 101 0.0 0.0 0.00 0.00 0.00 57 1010.4
20260904091053 30 106 0.0 1.6 0.00 0.00 0.00 57 1010.3
20260904090549 30 104 0.0 3.2 0.00 0.00 0.00 57 1010.3
20260904090046 30 113 0.0 3.2 0.00 0.00 0.00 57 1010.5
20260904085545 30 59 1.6 8.0 0.00 0.00 0.00 57 1010.5
20260904085045 30 101 0.0 3.2 0.00 0.00 0.00 57 1010.5
20260904084541 30 120 1.6 3.2 0.00 0.00 0.00 57 1010.4
20260904084037 30 107 0.0 1.6 0.00 0.00 0.00 57 1010.6
20260904083533 30 87 0.0 0.0 0.00 0.00 0.00 57 1010.4
20260904083028 30 106 0.0 4.8 0.00 0.00 0.00 56 1010.4
20260904082524 30 106 0.0 0.0 0.00 0.00 0.00 56 1010.7
20260904082019 30 121 3.2 8.0 0.00 0.00 0.00 55 1010.6
20260904081514 30 114 3.2 8.0 0.00 0.00 0.00 55 1010.5
20260904081009 30 118 4.8 8.0 0.00 0.00 0.00 55 1010.6
20260904080505 30 120 3.2 9.7 0.00 0.00 0.00 55 1010.4
20260904080000 30 143 11.3 12.9 0.00 0.00 0.00 54 1010.5
20260904075457 30 125 4.8 8.0 0.00 0.00 0.00 54 1010.6
20260904074955 30 106 1.6 8.0 0.00 0.00 0.00 54 1010.4
20260904074451 30 87 4.8 4.8 0.00 0.00 0.00 54 1010.7
20260904073945 30 116 3.2 9.7 0.00 0.00 0.00 54 1010.4
20260904073441 30 120 3.2 3.2 0.00 0.00 0.00 55 1010.1
20260904072936 31 94 3.2 4.8 0.00 0.00 0.00 55 1010.4
20260904072432 31 113 0.0 0.0 0.00 0.00 0.00 54 1010.4
20260904071927 31 109 0.0 0.0 0.00 0.00 0.00 54 1010.4
20260904071423 31 102 0.0 1.6 0.00 0.00 0.00 54 1010.6
20260904070917 31 93 0.0 3.2 0.00 0.00 0.00 54 1010.6
20260904070416 31 101 0.0 3.2 0.00 0.00 0.00 53 1010.4
20260904065916 31 123 0.0 3.2 0.00 0.00 0.00 53 1010.2
20260904065412 31 101 3.2 3.2 0.00 0.00 0.00 53 1010.3
20260904064912 31 127 1.6 3.2 0.00 0.00 0.00 53 1010.1
20260904064408 31 117 1.6 4.8 0.00 0.00 0.00 52 1010.1
20260904063904 31 90 3.2 9.7 0.00 0.00 0.00 52 1010.2
20260904063400 31 120 3.2 9.7 0.00 0.00 0.00 52 1010.1
20260904062855 31 122 8.0 11.3 0.00 0.00 0.00 51 1010.0
20260904062351 31 121 6.4 9.7 0.00 0.00 0.00 51 1009.9
20260904061847 31 138 1.6 11.3 0.00 0.00 0.00 50 1010.0
20260904061343 31 122 6.4 11.3 0.00 0.00 0.00 50 1010.0
20260904060838 31 99 3.2 12.9 0.00 0.00 0.00 50 1010.0
20260904060335 31 102 4.8 8.0 0.00 0.00 0.00 49 1009.9
20260904055830 31 166 4.8 11.3 0.00 0.00 0.00 49 1009.9
20260904055325 31 130 6.4 17.7 0.00 0.00 0.00 49 1009.8
20260904054821 31 129 3.2 11.3 0.00 0.00 0.00 49 1009.9
20260904054316 32 150 4.8 11.3 0.00 0.00 0.00 48 1009.9
20260904053811 32 159 4.8 9.7 0.00 0.00 0.00 48 1009.9
20260904053311 32 112 1.6 8.0 0.00 0.00 0.00 47 1009.8
20260904052807 32 168 1.6 8.0 0.00 0.00 0.00 47 1009.6
20260904052306 32 174 3.2 9.7 0.00 0.00 0.00 46 1009.7
20260904051759 32 139 1.6 4.8 0.00 0.00 0.00 46 1009.6
20260904051255 32 99 1.6 4.8 0.00 0.00 0.00 46 1009.8
20260904050749 32 176 8.0 11.3 0.00 0.00 0.00 45 1009.6
20260904050247 32 156 3.2 8.0 0.00 0.00 0.00 45 1009.8
20260904045746 32 172 4.8 9.7 0.00 0.00 0.00 44 1009.6
20260904045241 32 141 1.6 3.2 0.00 0.00 0.00 44 1009.8
20260904044736 32 126 8.0 12.9 0.00 0.00 0.00 43 1009.8
20260904044233 32 97 0.0 4.8 0.00 0.00 0.00 43 1009.5
20260904043728 32 78 3.2 8.0 0.00 0.00 0.00 42 1009.6
20260904043225 32 137 1.6 8.0 0.00 0.00 0.00 42 1009.6
20260904042720 33 119 1.6 4.8 0.00 0.00 0.00 42 1009.6
20260904042216 33 101 3.2 9.7 0.00 0.00 0.00 42 1009.7
20260904041715 33 107 0.0 3.2 0.00 0.00 0.00 42 1009.5
20260904041212 33 183 1.6 3.2 0.00 0.00 0.00 42 1009.5
20260904040708 33 154 1.6 3.2 0.00 0.00 0.00 42 1009.5
20260904040203 33 115 0.0 3.2 0.00 0.00 0.00 42 1009.2
20260904035659 33 111 1.6 4.8 0.00 0.00 0.00 42 1009.3
20260904035154 33 238 1.6 3.2 0.00 0.00 0.00 42 1009.2
20260904034653 33 137 0.0 0.0 0.00 0.00 0.00 42 1009.3
20260904034149 33 132 3.2 4.8 0.00 0.00 0.00 41 1009.3
20260904033645 33 151 0.0 3.2 0.00 0.00 0.00 41 1009.0
20260904033142 33 120 3.2 9.7 0.00 0.00 0.00 41 1008.9
20260904032637 33 103 1.6 9.7 0.00 0.00 0.00 41 1008.8
20260904032136 33 144 1.6 8.0 0.00 0.00 0.00 41 1008.8
20260904031635 33 122 1.6 4.8 0.00 0.00 0.00 41 1008.9
20260904031131 33 162 3.2 4.8 0.00 0.00 0.00 41 1008.8
20260904030627 33 121 1.6 8.0 0.00 0.00 0.00 41 1008.6